| time (UTC) | temp C | wind direction | speed KPH | gust KPH | rain 1hr cm | rain 24hr cm | rain mn cm | humidity % | barometer mb |
| 20260507080312 | 20 | 296 | 12.9 | 16.1 | 0.00 | 0.00 | 0.00 | 48 | 1013.7 |
| 20260507075822 | 20 | 284 | 14.5 | 16.1 | 0.00 | 0.00 | 0.00 | 48 | 1013.6 |
| 20260507075313 | 20 | 303 | 12.9 | 16.1 | 0.00 | 0.00 | 0.00 | 50 | 1013.6 |
| 20260507074827 | 20 | 295 | 12.9 | 16.1 | 0.00 | 0.00 | 0.00 | 50 | 1013.7 |
| 20260507074317 | 20 | 318 | 12.9 | 17.7 | 0.00 | 0.00 | 0.00 | 49 | 1013.7 |
| 20260507073814 | 20 | 300 | 12.9 | 17.7 | 0.00 | 0.00 | 0.00 | 49 | 1013.8 |
| 20260507073324 | 20 | 288 | 14.5 | 17.7 | 0.00 | 0.00 | 0.00 | 49 | 1013.7 |
| 20260507072836 | 20 | 317 | 12.9 | 16.1 | 0.00 | 0.00 | 0.00 | 49 | 1013.8 |
| 20260507072326 | 19 | 302 | 14.5 | 16.1 | 0.00 | 0.00 | 0.00 | 50 | 1013.9 |
| 20260507071837 | 19 | 309 | 12.9 | 14.5 | 0.00 | 0.00 | 0.00 | 50 | 1013.9 |
| 20260507071328 | 20 | 319 | 9.7 | 14.5 | 0.00 | 0.00 | 0.00 | 50 | 1013.9 |
| 20260507070820 | 20 | 313 | 8.0 | 9.7 | 0.00 | 0.00 | 0.00 | 49 | 1014.0 |
| 20260507070330 | 20 | 272 | 9.7 | 12.9 | 0.00 | 0.00 | 0.00 | 49 | 1014.0 |
| 20260507065820 | 20 | 263 | 11.3 | 12.9 | 0.00 | 0.00 | 0.00 | 49 | 1014.0 |
| 20260507065330 | 20 | 270 | 9.7 | 11.3 | 0.00 | 0.00 | 0.00 | 48 | 1014.0 |
| 20260507064822 | 20 | 262 | 4.8 | 12.9 | 0.00 | 0.00 | 0.00 | 47 | 1014.2 |
| 20260507064318 | 21 | 257 | 9.7 | 16.1 | 0.00 | 0.00 | 0.00 | 47 | 1014.2 |
| 20260507063830 | 21 | 251 | 12.9 | 16.1 | 0.00 | 0.00 | 0.00 | 47 | 1014.2 |
| 20260507063321 | 21 | 260 | 11.3 | 17.7 | 0.00 | 0.00 | 0.00 | 46 | 1014.2 |
| 20260507062813 | 21 | 263 | 14.5 | 19.3 | 0.00 | 0.00 | 0.00 | 45 | 1014.3 |
| 20260507062324 | 21 | 275 | 16.1 | 25.7 | 0.00 | 0.00 | 0.00 | 45 | 1014.2 |
| 20260507061815 | 21 | 269 | 17.7 | 25.7 | 0.00 | 0.00 | 0.00 | 45 | 1014.2 |
| 20260507061324 | 21 | 294 | 14.5 | 20.9 | 0.00 | 0.00 | 0.00 | 44 | 1014.2 |
| 20260507060816 | 22 | 281 | 16.1 | 20.9 | 0.00 | 0.00 | 0.00 | 44 | 1014.3 |
| 20260507060327 | 22 | 302 | 16.1 | 27.4 | 0.00 | 0.00 | 0.00 | 44 | 1014.3 |
| 20260507055820 | 22 | 304 | 19.3 | 27.4 | 0.00 | 0.00 | 0.00 | 44 | 1014.4 |
| 20260507055313 | 22 | 297 | 17.7 | 24.1 | 0.00 | 0.00 | 0.00 | 44 | 1014.4 |
| 20260507054826 | 22 | 299 | 19.3 | 27.4 | 0.00 | 0.00 | 0.00 | 44 | 1014.4 |
| 20260507054318 | 22 | 290 | 17.7 | 27.4 | 0.00 | 0.00 | 0.00 | 44 | 1014.4 |
| 20260507053850 | 22 | 303 | 20.9 | 29.0 | 0.00 | 0.00 | 0.00 | 44 | 1014.5 |
| 20260507053319 | 22 | 311 | 20.9 | 29.0 | 0.00 | 0.00 | 0.00 | 45 | 1014.4 |
| 20260507052831 | 22 | 300 | 20.9 | 33.8 | 0.00 | 0.00 | 0.00 | 45 | 1014.4 |
| 20260507052322 | 22 | 298 | 22.5 | 33.8 | 0.00 | 0.00 | 0.00 | 45 | 1014.4 |
| 20260507051818 | 22 | 304 | 22.5 | 37.0 | 0.00 | 0.00 | 0.00 | 45 | 1014.4 |
| 20260507051328 | 22 | 287 | 24.1 | 33.8 | 0.00 | 0.00 | 0.00 | 45 | 1014.3 |
| 20260507050821 | 22 | 302 | 27.4 | 32.2 | 0.00 | 0.00 | 0.00 | 44 | 1014.3 |
| 20260507050331 | 22 | 296 | 22.5 | 32.2 | 0.00 | 0.00 | 0.00 | 44 | 1014.3 |
| 20260507045839 | 22 | 321 | 22.5 | 32.2 | 0.00 | 0.00 | 0.00 | 43 | 1014.4 |
| 20260507045349 | 22 | 297 | 22.5 | 29.0 | 0.00 | 0.00 | 0.00 | 43 | 1014.3 |
| 20260507044822 | 23 | 302 | 20.9 | 33.8 | 0.00 | 0.00 | 0.00 | 42 | 1014.4 |
| 20260507044313 | 23 | 295 | 22.5 | 32.2 | 0.00 | 0.00 | 0.00 | 42 | 1014.3 |
| 20260507043827 | 23 | 288 | 20.9 | 32.2 | 0.00 | 0.00 | 0.00 | 41 | 1014.3 |
| 20260507043318 | 23 | 277 | 24.1 | 32.2 | 0.00 | 0.00 | 0.00 | 40 | 1014.2 |
| 20260507042833 | 23 | 270 | 25.7 | 32.2 | 0.00 | 0.00 | 0.00 | 40 | 1014.2 |
| 20260507042325 | 23 | 292 | 22.5 | 32.2 | 0.00 | 0.00 | 0.00 | 39 | 1014.1 |
| 20260507041818 | 23 | 261 | 24.1 | 32.2 | 0.00 | 0.00 | 0.00 | 39 | 1014.1 |
| 20260507041329 | 23 | 257 | 22.5 | 29.0 | 0.00 | 0.00 | 0.00 | 38 | 1014.1 |
| 20260507040821 | 24 | 277 | 22.5 | 29.0 | 0.00 | 0.00 | 0.00 | 38 | 1014.0 |
| 20260507040330 | 24 | 258 | 17.7 | 24.1 | 0.00 | 0.00 | 0.00 | 36 | 1014.0 |
| 20260507035820 | 24 | 276 | 16.1 | 24.1 | 0.00 | 0.00 | 0.00 | 35 | 1014.0 |
| 20260507035331 | 24 | 275 | 19.3 | 29.0 | 0.00 | 0.00 | 0.00 | 35 | 1013.9 |
| 20260507034822 | 25 | 288 | 22.5 | 29.0 | 0.00 | 0.00 | 0.00 | 34 | 1013.9 |
| 20260507034353 | 25 | 282 | 17.7 | 24.1 | 0.00 | 0.00 | 0.00 | 33 | 1013.8 |
| 20260507033828 | 25 | 277 | 17.7 | 24.1 | 0.00 | 0.00 | 0.00 | 33 | 1013.7 |
| 20260507033319 | 25 | 277 | 14.5 | 19.3 | 0.00 | 0.00 | 0.00 | 32 | 1013.6 |
| 20260507032812 | 25 | 270 | 12.9 | 20.9 | 0.00 | 0.00 | 0.00 | 31 | 1013.6 |
| 20260507032344 | 25 | 287 | 16.1 | 20.9 | 0.00 | 0.00 | 0.00 | 31 | 1013.5 |
| 20260507031814 | 25 | 265 | 14.5 | 19.3 | 0.00 | 0.00 | 0.00 | 31 | 1013.4 |
| 20260507031325 | 25 | 261 | 9.7 | 17.7 | 0.00 | 0.00 | 0.00 | 30 | 1013.4 |
| 20260507030817 | 25 | 300 | 11.3 | 24.1 | 0.00 | 0.00 | 0.00 | 30 | 1013.3 |
| 20260507030327 | 25 | 269 | 16.1 | 24.1 | 0.00 | 0.00 | 0.00 | 30 | 1013.2 |
| 20260507025837 | 25 | 267 | 14.5 | 20.9 | 0.00 | 0.00 | 0.00 | 29 | 1013.2 |
| 20260507025347 | 26 | 273 | 12.9 | 22.5 | 0.00 | 0.00 | 0.00 | 29 | 1013.1 |
| 20260507024822 | 26 | 242 | 14.5 | 20.9 | 0.00 | 0.00 | 0.00 | 29 | 1013.0 |
| 20260507024313 | 26 | 261 | 16.1 | 20.9 | 0.00 | 0.00 | 0.00 | 29 | 1012.9 |
| 20260507023825 | 26 | 263 | 17.7 | 25.7 | 0.00 | 0.00 | 0.00 | 29 | 1012.8 |
| 20260507023335 | 26 | 260 | 20.9 | 25.7 | 0.00 | 0.00 | 0.00 | 29 | 1012.7 |
| 20260507022847 | 26 | 297 | 17.7 | 25.7 | 0.00 | 0.00 | 0.00 | 28 | 1012.7 |
| 20260507022317 | 26 | 273 | 12.9 | 20.9 | 0.00 | 0.00 | 0.00 | 28 | 1012.7 |
| 20260507021850 | 27 | 246 | 14.5 | 22.5 | 0.00 | 0.00 | 0.00 | 28 | 1012.6 |
| 20260507021321 | 27 | 263 | 17.7 | 25.7 | 0.00 | 0.00 | 0.00 | 27 | 1012.6 |
| 20260507020814 | 27 | 246 | 14.5 | 25.7 | 0.00 | 0.00 | 0.00 | 27 | 1012.5 |
| 20260507020325 | 27 | 251 | 19.3 | 25.7 | 0.00 | 0.00 | 0.00 | 27 | 1012.5 |
| 20260507015836 | 27 | 252 | 14.5 | 27.4 | 0.00 | 0.00 | 0.00 | 26 | 1012.5 |
| 20260507015329 | 28 | 196 | 17.7 | 27.4 | 0.00 | 0.00 | 0.00 | 22 | 1012.4 |
| 20260507014820 | 28 | 259 | 17.7 | 24.1 | 0.00 | 0.00 | 0.00 | 25 | 1012.4 |
| 20260507014330 | 29 | 248 | 6.4 | 14.5 | 0.00 | 0.00 | 0.00 | 22 | 1012.3 |
| 20260507013823 | 29 | 180 | 6.4 | 8.0 | 0.00 | 0.00 | 0.00 | 20 | 1012.3 |
| 20260507013313 | 29 | 180 | 4.8 | 8.0 | 0.00 | 0.00 | 0.00 | 20 | 1012.2 |
| 20260507012826 | 29 | 150 | 1.6 | 12.9 | 0.00 | 0.00 | 0.00 | 20 | 1012.1 |
| 20260507012316 | 30 | 167 | 4.8 | 12.9 | 0.00 | 0.00 | 0.00 | 20 | 1012.1 |
| 20260507011830 | 30 | 138 | 8.0 | 12.9 | 0.00 | 0.00 | 0.00 | 20 | 1012.1 |
| 20260507011322 | 30 | 145 | 1.6 | 6.4 | 0.00 | 0.00 | 0.00 | 20 | 1012.1 |
| 20260507010819 | 30 | 180 | 3.2 | 6.4 | 0.00 | 0.00 | 0.00 | 19 | 1012.0 |
| 20260507010331 | 30 | 159 | 3.2 | 9.7 | 0.00 | 0.00 | 0.00 | 20 | 1012.0 |
| 20260507005821 | 30 | 178 | 4.8 | 11.3 | 0.00 | 0.00 | 0.00 | 20 | 1012.1 |
| 20260507005332 | 30 | 160 | 4.8 | 11.3 | 0.00 | 0.00 | 0.00 | 19 | 1012.0 |
| 20260507004845 | 30 | 199 | 8.0 | 11.3 | 0.00 | 0.00 | 0.00 | 19 | 1012.0 |
| 20260507004314 | 30 | 178 | 8.0 | 12.9 | 0.00 | 0.00 | 0.00 | 19 | 1012.0 |
| 20260507003826 | 30 | 205 | 6.4 | 12.9 | 0.00 | 0.00 | 0.00 | 20 | 1012.0 |
| 20260507003318 | 30 | 194 | 3.2 | 12.9 | 0.00 | 0.00 | 0.00 | 19 | 1012.0 |
| 20260507002815 | 30 | 188 | 8.0 | 20.9 | 0.00 | 0.00 | 0.00 | 20 | 1012.0 |
| 20260507002326 | 30 | 182 | 8.0 | 20.9 | 0.00 | 0.00 | 0.00 | 20 | 1012.0 |
| 20260507001818 | 30 | 146 | 8.0 | 11.3 | 0.00 | 0.00 | 0.00 | 19 | 1011.9 |
| 20260507001329 | 30 | 172 | 8.0 | 11.3 | 0.00 | 0.00 | 0.00 | 20 | 1011.9 |
| 20260507000823 | 30 | 205 | 4.8 | 16.1 | 0.00 | 0.00 | 0.00 | 19 | 1011.9 |
| 20260507000314 | 30 | 162 | 9.7 | 16.1 | 0.00 | 0.00 | 0.00 | 19 | 1011.8 |
| 20260506235823 | 29 | 192 | 6.4 | 17.7 | 0.00 | 0.00 | 0.00 | 20 | 1011.8 |
| 20260506235353 | 30 | 99 | 11.3 | 17.7 | 0.00 | 0.00 | 0.00 | 19 | 1011.8 |
| 20260506234825 | 30 | 139 | 4.8 | 11.3 | 0.00 | 0.00 | 0.00 | 19 | 1011.8 |
| 20260506234336 | 30 | 127 | 3.2 | 14.5 | 0.00 | 0.00 | 0.00 | 19 | 1011.8 |
| 20260506233813 | 29 | 140 | 9.7 | 14.5 | 0.00 | 0.00 | 0.00 | 19 | 1011.8 |
| 20260506233345 | 29 | 65 | 4.8 | 14.5 | 0.00 | 0.00 | 0.00 | 19 | 1011.9 |
| 20260506232817 | 30 | 91 | 8.0 | 14.5 | 0.00 | 0.00 | 0.00 | 18 | 1012.0 |
| 20260506232329 | 30 | 53 | 3.2 | 14.5 | 0.00 | 0.00 | 0.00 | 18 | 1012.0 |
| 20260506231820 | 30 | 126 | 8.0 | 14.5 | 0.00 | 0.00 | 0.00 | 18 | 1012.0 |
| 20260506231331 | 30 | 126 | 4.8 | 11.3 | 0.00 | 0.00 | 0.00 | 18 | 1012.0 |
| 20260506230824 | 30 | 153 | 4.8 | 14.5 | 0.00 | 0.00 | 0.00 | 19 | 1012.1 |
| 20260506230335 | 30 | 74 | 4.8 | 14.5 | 0.00 | 0.00 | 0.00 | 18 | 1012.2 |
| 20260506225822 | 30 | 104 | 4.8 | 12.9 | 0.00 | 0.00 | 0.00 | 18 | 1012.1 |
| 20260506225331 | 30 | 192 | 3.2 | 12.9 | 0.00 | 0.00 | 0.00 | 18 | 1012.2 |
| 20260506224827 | 30 | 126 | 8.0 | 17.7 | 0.00 | 0.00 | 0.00 | 18 | 1012.3 |
| 20260506224319 | 30 | 175 | 9.7 | 17.7 | 0.00 | 0.00 | 0.00 | 19 | 1012.3 |
| 20260506223830 | 30 | 94 | 6.4 | 16.1 | 0.00 | 0.00 | 0.00 | 18 | 1012.4 |
| 20260506223321 | 30 | 136 | 4.8 | 16.1 | 0.00 | 0.00 | 0.00 | 18 | 1012.4 |
| 20260506222813 | 30 | 198 | 8.0 | 16.1 | 0.00 | 0.00 | 0.00 | 18 | 1012.5 |
| 20260506222325 | 30 | 84 | 6.4 | 14.5 | 0.00 | 0.00 | 0.00 | 19 | 1012.5 |
| 20260506221816 | 29 | 195 | 1.6 | 14.5 | 0.00 | 0.00 | 0.00 | 19 | 1012.6 |
| 20260506221326 | 29 | 190 | 3.2 | 14.5 | 0.00 | 0.00 | 0.00 | 19 | 1012.7 |
| 20260506220819 | 29 | 173 | 9.7 | 16.1 | 0.00 | 0.00 | 0.00 | 19 | 1012.8 |
| 20260506220315 | 29 | 179 | 11.3 | 16.1 | 0.00 | 0.00 | 0.00 | 20 | 1012.8 |
| 20260506215826 | 29 | 184 | 9.7 | 33.8 | 0.00 | 0.00 | 0.00 | 20 | 1013.0 |
| 20260506215317 | 29 | 136 | 9.7 | 33.8 | 0.00 | 0.00 | 0.00 | 19 | 1012.9 |
| 20260506214829 | 29 | 179 | 9.7 | 20.9 | 0.00 | 0.00 | 0.00 | 20 | 1013.0 |
| 20260506214319 | 28 | 183 | 11.3 | 20.9 | 0.00 | 0.00 | 0.00 | 20 | 1013.2 |
| 20260506213832 | 28 | 148 | 14.5 | 24.1 | 0.00 | 0.00 | 0.00 | 20 | 1013.2 |
| 20260506213323 | 28 | 243 | 6.4 | 14.5 | 0.00 | 0.00 | 0.00 | 20 | 1013.3 |
| 20260506212816 | 29 | 254 | 9.7 | 14.5 | 0.00 | 0.00 | 0.00 | 19 | 1013.4 |
| 20260506212330 | 29 | 154 | 6.4 | 14.5 | 0.00 | 0.00 | 0.00 | 20 | 1013.5 |
| 20260506211823 | 28 | 172 | 9.7 | 16.1 | 0.00 | 0.00 | 0.00 | 20 | 1013.4 |
| 20260506211314 | 28 | 200 | 4.8 | 14.5 | 0.00 | 0.00 | 0.00 | 20 | 1013.5 |
| 20260506210846 | 28 | 179 | 8.0 | 14.5 | 0.00 | 0.00 | 0.00 | 21 | 1013.6 |
| 20260506210315 | 28 | 227 | 11.3 | 17.7 | 0.00 | 0.00 | 0.00 | 20 | 1013.6 |
| 20260506205825 | 28 | 201 | 11.3 | 17.7 | 0.00 | 0.00 | 0.00 | 21 | 1013.7 |
| 20260506205316 | 28 | 117 | 6.4 | 17.7 | 0.00 | 0.00 | 0.00 | 20 | 1013.7 |
| 20260506204828 | 28 | 132 | 9.7 | 17.7 | 0.00 | 0.00 | 0.00 | 21 | 1013.8 |
| 20260506204319 | 28 | 145 | 6.4 | 14.5 | 0.00 | 0.00 | 0.00 | 21 | 1013.9 |
| 20260506203836 | 28 | 252 | 3.2 | 11.3 | 0.00 | 0.00 | 0.00 | 21 | 1014.0 |
| 20260506203326 | 27 | 215 | 8.0 | 14.5 | 0.00 | 0.00 | 0.00 | 21 | 1014.1 |
| 20260506202819 | 27 | 92 | 4.8 | 17.7 | 0.00 | 0.00 | 0.00 | 21 | 1014.1 |
| 20260506202328 | 27 | 178 | 14.5 | 19.3 | 0.00 | 0.00 | 0.00 | 22 | 1014.2 |
| 20260506201819 | 27 | 165 | 6.4 | 20.9 | 0.00 | 0.00 | 0.00 | 22 | 1014.2 |
| 20260506201330 | 27 | 260 | 14.5 | 20.9 | 0.00 | 0.00 | 0.00 | 22 | 1014.2 |
| 20260506200822 | 27 | 160 | 1.6 | 9.7 | 0.00 | 0.00 | 0.00 | 23 | 1014.3 |
| 20260506200313 | 26 | 32 | 4.8 | 9.7 | 0.00 | 0.00 | 0.00 | 23 | 1014.4 |
| 20260506195822 | 26 | 99 | 4.8 | 16.1 | 0.00 | 0.00 | 0.00 | 23 | 1014.5 |
| 20260506195317 | 26 | 20 | 11.3 | 16.1 | 0.00 | 0.00 | 0.00 | 23 | 1014.7 |
| 20260506194850 | 27 | 300 | 3.2 | 17.7 | 0.00 | 0.00 | 0.00 | 23 | 1014.7 |
| 20260506194321 | 27 | 192 | 9.7 | 17.7 | 0.00 | 0.00 | 0.00 | 24 | 1014.7 |
| 20260506193814 | 26 | 167 | 4.8 | 16.1 | 0.00 | 0.00 | 0.00 | 24 | 1014.8 |
| 20260506193325 | 26 | 273 | 6.4 | 16.1 | 0.00 | 0.00 | 0.00 | 24 | 1014.8 |
| 20260506192818 | 26 | 250 | 4.8 | 12.9 | 0.00 | 0.00 | 0.00 | 24 | 1014.9 |
| 20260506192349 | 26 | 228 | 4.8 | 12.9 | 0.00 | 0.00 | 0.00 | 24 | 1014.9 |
| 20260506191820 | 26 | 191 | 8.0 | 16.1 | 0.00 | 0.00 | 0.00 | 24 | 1015.0 |
| 20260506191331 | 26 | 212 | 8.0 | 16.1 | 0.00 | 0.00 | 0.00 | 23 | 1015.1 |
| 20260506190844 | 26 | 223 | 3.2 | 19.3 | 0.00 | 0.00 | 0.00 | 23 | 1015.0 |
| 20260506190317 | 26 | 167 | 8.0 | 19.3 | 0.00 | 0.00 | 0.00 | 25 | 1015.0 |
| 20260506185827 | 26 | 168 | 9.7 | 14.5 | 0.00 | 0.00 | 0.00 | 25 | 1015.1 |
| 20260506185317 | 25 | 225 | 3.2 | 11.3 | 0.00 | 0.00 | 0.00 | 25 | 1015.2 |
| 20260506184830 | 25 | 306 | 3.2 | 11.3 | 0.00 | 0.00 | 0.00 | 25 | 1015.3 |
| 20260506184321 | 25 | 208 | 3.2 | 11.3 | 0.00 | 0.00 | 0.00 | 26 | 1015.4 |
| 20260506183854 | 25 | 263 | 6.4 | 14.5 | 0.00 | 0.00 | 0.00 | 26 | 1015.5 |
| 20260506183324 | 24 | 286 | 9.7 | 16.1 | 0.00 | 0.00 | 0.00 | 27 | 1015.5 |
| 20260506182818 | 24 | 216 | 9.7 | 16.1 | 0.00 | 0.00 | 0.00 | 27 | 1015.6 |
| 20260506182330 | 24 | 150 | 3.2 | 16.1 | 0.00 | 0.00 | 0.00 | 27 | 1015.6 |
| 20260506181826 | 24 | 254 | 9.7 | 17.7 | 0.00 | 0.00 | 0.00 | 28 | 1015.6 |
| 20260506181315 | 24 | 248 | 9.7 | 17.7 | 0.00 | 0.00 | 0.00 | 28 | 1015.6 |
| 20260506180828 | 23 | 276 | 12.9 | 17.7 | 0.00 | 0.00 | 0.00 | 28 | 1015.6 |
| 20260506180318 | 24 | 249 | 12.9 | 20.9 | 0.00 | 0.00 | 0.00 | 28 | 1015.6 |
| 20260506175828 | 23 | 259 | 12.9 | 19.3 | 0.00 | 0.00 | 0.00 | 28 | 1015.6 |
| 20260506175319 | 23 | 311 | 12.9 | 19.3 | 0.00 | 0.00 | 0.00 | 29 | 1015.6 |
| 20260506174831 | 23 | 270 | 8.0 | 20.9 | 0.00 | 0.00 | 0.00 | 30 | 1015.6 |
| 20260506174320 | 23 | 275 | 16.1 | 22.5 | 0.00 | 0.00 | 0.00 | 30 | 1015.6 |
| 20260506173851 | 22 | 276 | 17.7 | 22.5 | 0.00 | 0.00 | 0.00 | 31 | 1015.6 |
| 20260506173321 | 22 | 261 | 16.1 | 22.5 | 0.00 | 0.00 | 0.00 | 31 | 1015.6 |
| 20260506172817 | 22 | 293 | 16.1 | 24.1 | 0.00 | 0.00 | 0.00 | 32 | 1015.6 |
| 20260506172329 | 22 | 248 | 19.3 | 25.7 | 0.00 | 0.00 | 0.00 | 32 | 1015.6 |
| 20260506171822 | 22 | 253 | 16.1 | 25.7 | 0.00 | 0.00 | 0.00 | 33 | 1015.6 |
| 20260506171353 | 22 | 265 | 16.1 | 22.5 | 0.00 | 0.00 | 0.00 | 33 | 1015.7 |
| 20260506170825 | 22 | 313 | 14.5 | 22.5 | 0.00 | 0.00 | 0.00 | 34 | 1015.6 |
| 20260506170316 | 21 | 252 | 16.1 | 22.5 | 0.00 | 0.00 | 0.00 | 34 | 1015.6 |
| 20260506165826 | 21 | 275 | 16.1 | 20.9 | 0.00 | 0.00 | 0.00 | 34 | 1015.6 |
| 20260506165318 | 21 | 273 | 16.1 | 25.7 | 0.00 | 0.00 | 0.00 | 34 | 1015.6 |
| 20260506164830 | 21 | 269 | 19.3 | 25.7 | 0.00 | 0.00 | 0.00 | 35 | 1015.6 |
| 20260506164325 | 21 | 275 | 20.9 | 29.0 | 0.00 | 0.00 | 0.00 | 35 | 1015.6 |
| 20260506163836 | 21 | 252 | 19.3 | 29.0 | 0.00 | 0.00 | 0.00 | 36 | 1015.6 |
| 20260506163325 | 21 | 249 | 19.3 | 33.8 | 0.00 | 0.00 | 0.00 | 36 | 1015.6 |
| 20260506162817 | 20 | 244 | 19.3 | 33.8 | 0.00 | 0.00 | 0.00 | 37 | 1015.5 |
| 20260506162328 | 20 | 269 | 24.1 | 33.8 | 0.00 | 0.00 | 0.00 | 38 | 1015.4 |
| 20260506161819 | 20 | 255 | 24.1 | 30.6 | 0.00 | 0.00 | 0.00 | 38 | 1015.4 |
| 20260506161328 | 20 | 275 | 24.1 | 33.8 | 0.00 | 0.00 | 0.00 | 39 | 1015.4 |
| 20260506160820 | 20 | 253 | 24.1 | 33.8 | 0.00 | 0.00 | 0.00 | 39 | 1015.4 |
| 20260506160331 | 20 | 281 | 22.5 | 33.8 | 0.00 | 0.00 | 0.00 | 39 | 1015.4 |
| 20260506155821 | 20 | 280 | 22.5 | 33.8 | 0.00 | 0.00 | 0.00 | 39 | 1015.4 |
| 20260506155315 | 19 | 268 | 24.1 | 32.2 | 0.00 | 0.00 | 0.00 | 39 | 1015.3 |
| 20260506154848 | 19 | 290 | 24.1 | 38.6 | 0.00 | 0.00 | 0.00 | 40 | 1015.2 |
| 20260506154314 | 18 | 288 | 25.7 | 33.8 | 0.00 | 0.00 | 0.00 | 40 | 1015.2 |
| 20260506153826 | 18 | 294 | 25.7 | 35.4 | 0.00 | 0.00 | 0.00 | 41 | 1015.2 |
| 20260506153337 | 18 | 286 | 29.0 | 37.0 | 0.00 | 0.00 | 0.00 | 40 | 1015.3 |
| 20260506152828 | 18 | 290 | 25.7 | 33.8 | 0.00 | 0.00 | 0.00 | 41 | 1015.3 |
| 20260506152320 | 18 | 304 | 25.7 | 33.8 | 0.00 | 0.00 | 0.00 | 41 | 1015.3 |
| 20260506151813 | 18 | 276 | 22.5 | 32.2 | 0.00 | 0.00 | 0.00 | 41 | 1015.2 |
| 20260506151344 | 18 | 257 | 25.7 | 32.2 | 0.00 | 0.00 | 0.00 | 42 | 1015.2 |
| 20260506150835 | 18 | 285 | 24.1 | 32.2 | 0.00 | 0.00 | 0.00 | 43 | 1015.2 |
| 20260506150326 | 17 | 266 | 25.7 | 33.8 | 0.00 | 0.00 | 0.00 | 43 | 1015.2 |
| 20260506145840 | 17 | 261 | 25.7 | 33.8 | 0.00 | 0.00 | 0.00 | 44 | 1015.2 |
| 20260506145331 | 17 | 291 | 25.7 | 30.6 | 0.00 | 0.00 | 0.00 | 44 | 1015.2 |
| 20260506144824 | 17 | 289 | 24.1 | 32.2 | 0.00 | 0.00 | 0.00 | 45 | 1015.2 |
| 20260506144332 | 17 | 291 | 25.7 | 32.2 | 0.00 | 0.00 | 0.00 | 45 | 1015.1 |
| 20260506143825 | 17 | 281 | 22.5 | 29.0 | 0.00 | 0.00 | 0.00 | 46 | 1015.1 |
| 20260506143314 | 16 | 291 | 24.1 | 29.0 | 0.00 | 0.00 | 0.00 | 46 | 1015.0 |
| 20260506142826 | 16 | 302 | 22.5 | 30.6 | 0.00 | 0.00 | 0.00 | 46 | 1015.0 |
| 20260506142317 | 16 | 281 | 22.5 | 30.6 | 0.00 | 0.00 | 0.00 | 46 | 1015.0 |
| 20260506141831 | 16 | 265 | 24.1 | 32.2 | 0.00 | 0.00 | 0.00 | 46 | 1014.9 |
| 20260506141322 | 16 | 270 | 25.7 | 29.0 | 0.00 | 0.00 | 0.00 | 48 | 1014.8 |
| 20260506140819 | 16 | 265 | 17.7 | 24.1 | 0.00 | 0.00 | 0.00 | 49 | 1014.8 |
| 20260506140331 | 15 | 304 | 17.7 | 24.1 | 0.00 | 0.00 | 0.00 | 49 | 1014.9 |
| 20260506135821 | 15 | 297 | 16.1 | 22.5 | 0.00 | 0.00 | 0.00 | 50 | 1014.8 |
| 20260506135313 | 15 | 311 | 16.1 | 24.1 | 0.00 | 0.00 | 0.00 | 50 | 1014.7 |
| 20260506134828 | 15 | 304 | 20.9 | 25.7 | 0.00 | 0.00 | 0.00 | 51 | 1014.7 |
| 20260506134319 | 14 | 304 | 19.3 | 27.4 | 0.00 | 0.00 | 0.00 | 52 | 1014.5 |
| 20260506133832 | 14 | 292 | 20.9 | 27.4 | 0.00 | 0.00 | 0.00 | 53 | 1014.5 |
| 20260506133344 | 13 | 280 | 17.7 | 22.5 | 0.00 | 0.00 | 0.00 | 54 | 1014.4 |
| 20260506132820 | 13 | 297 | 19.3 | 25.7 | 0.00 | 0.00 | 0.00 | 54 | 1014.4 |
| 20260506132332 | 13 | 298 | 19.3 | 25.7 | 0.00 | 0.00 | 0.00 | 55 | 1014.4 |
| 20260506131825 | 13 | 302 | 17.7 | 22.5 | 0.00 | 0.00 | 0.00 | 56 | 1014.4 |
| 20260506131316 | 13 | 306 | 17.7 | 20.9 | 0.00 | 0.00 | 0.00 | 56 | 1014.3 |
| 20260506130848 | 13 | 311 | 16.1 | 19.3 | 0.00 | 0.00 | 0.00 | 57 | 1014.3 |
| 20260506130317 | 12 | 281 | 14.5 | 19.3 | 0.00 | 0.00 | 0.00 | 57 | 1014.2 |
| 20260506125827 | 12 | 308 | 17.7 | 19.3 | 0.00 | 0.00 | 0.00 | 57 | 1014.2 |
| 20260506125318 | 12 | 298 | 16.1 | 20.9 | 0.00 | 0.00 | 0.00 | 57 | 1014.1 |
| 20260506124830 | 13 | 311 | 16.1 | 20.9 | 0.00 | 0.00 | 0.00 | 57 | 1014.2 |
| 20260506124326 | 12 | 298 | 16.1 | 20.9 | 0.00 | 0.00 | 0.00 | 57 | 1014.1 |
| 20260506123839 | 12 | 309 | 16.1 | 20.9 | 0.00 | 0.00 | 0.00 | 58 | 1014.1 |
| 20260506123330 | 13 | 312 | 16.1 | 20.9 | 0.00 | 0.00 | 0.00 | 56 | 1014.0 |
| 20260506122824 | 13 | 304 | 17.7 | 25.7 | 0.00 | 0.00 | 0.00 | 56 | 1014.0 |
| 20260506122336 | 13 | 299 | 20.9 | 25.7 | 0.00 | 0.00 | 0.00 | 57 | 1014.0 |
| 20260506121828 | 13 | 277 | 19.3 | 25.7 | 0.00 | 0.00 | 0.00 | 58 | 1013.9 |
| 20260506121339 | 13 | 276 | 20.9 | 25.7 | 0.00 | 0.00 | 0.00 | 58 | 1013.9 |
| 20260506120850 | 13 | 273 | 20.9 | 27.4 | 0.00 | 0.00 | 0.00 | 58 | 1013.8 |
| 20260506120319 | 13 | 274 | 20.9 | 27.4 | 0.00 | 0.00 | 0.00 | 58 | 1013.7 |
| 20260506115848 | 13 | 290 | 20.9 | 29.0 | 0.00 | 0.00 | 0.00 | 57 | 1013.8 |
| 20260506115318 | 13 | 290 | 22.5 | 29.0 | 0.00 | 0.00 | 0.00 | 57 | 1013.7 |
| 20260506114830 | 13 | 273 | 24.1 | 29.0 | 0.00 | 0.00 | 0.00 | 57 | 1013.7 |
| 20260506114326 | 13 | 275 | 22.5 | 29.0 | 0.00 | 0.00 | 0.00 | 57 | 1013.6 |
| 20260506113818 | 13 | 263 | 19.3 | 25.7 | 0.00 | 0.00 | 0.00 | 57 | 1013.7 |
| 20260506113330 | 13 | 268 | 19.3 | 25.7 | 0.00 | 0.00 | 0.00 | 57 | 1013.7 |
| 20260506112843 | 13 | 267 | 20.9 | 27.4 | 0.00 | 0.00 | 0.00 | 56 | 1013.6 |
| 20260506112334 | 13 | 282 | 22.5 | 27.4 | 0.00 | 0.00 | 0.00 | 56 | 1013.6 |
| 20260506111825 | 13 | 302 | 20.9 | 27.4 | 0.00 | 0.00 | 0.00 | 56 | 1013.6 |
| 20260506111336 | 13 | 294 | 20.9 | 27.4 | 0.00 | 0.00 | 0.00 | 57 | 1013.6 |
| 20260506110829 | 13 | 277 | 19.3 | 25.7 | 0.00 | 0.00 | 0.00 | 57 | 1013.6 |
| 20260506110321 | 13 | 271 | 17.7 | 24.1 | 0.00 | 0.00 | 0.00 | 57 | 1013.6 |
| 20260506105831 | 13 | 275 | 20.9 | 25.7 | 0.00 | 0.00 | 0.00 | 57 | 1013.6 |
| 20260506105327 | 13 | 284 | 19.3 | 25.7 | 0.00 | 0.00 | 0.00 | 57 | 1013.7 |
| 20260506104821 | 13 | 292 | 19.3 | 22.5 | 0.00 | 0.00 | 0.00 | 57 | 1013.6 |
| 20260506104332 | 13 | 294 | 17.7 | 25.7 | 0.00 | 0.00 | 0.00 | 57 | 1013.7 |
| 20260506103825 | 13 | 273 | 19.3 | 27.4 | 0.00 | 0.00 | 0.00 | 57 | 1013.6 |
| 20260506103316 | 13 | 293 | 20.9 | 27.4 | 0.00 | 0.00 | 0.00 | 56 | 1013.6 |
| 20260506102830 | 14 | 277 | 20.9 | 27.4 | 0.00 | 0.00 | 0.00 | 57 | 1013.5 |
| 20260506102322 | 13 | 284 | 20.9 | 27.4 | 0.00 | 0.00 | 0.00 | 57 | 1013.4 |
| 20260506101815 | 13 | 294 | 19.3 | 27.4 | 0.00 | 0.00 | 0.00 | 57 | 1013.4 |
| 20260506101327 | 14 | 290 | 19.3 | 27.4 | 0.00 | 0.00 | 0.00 | 56 | 1013.6 |
| 20260506100825 | 14 | 277 | 17.7 | 25.7 | 0.00 | 0.00 | 0.00 | 56 | 1013.5 |
| 20260506100335 | 14 | 278 | 19.3 | 27.4 | 0.00 | 0.00 | 0.00 | 56 | 1013.4 |
| 20260506095824 | 14 | 262 | 20.9 | 29.0 | 0.00 | 0.00 | 0.00 | 57 | 1013.4 |
| 20260506095316 | 14 | 282 | 20.9 | 32.2 | 0.00 | 0.00 | 0.00 | 56 | 1013.3 |
| 20260506094831 | 14 | 288 | 25.7 | 32.2 | 0.00 | 0.00 | 0.00 | 56 | 1013.4 |
| 20260506094323 | 14 | 279 | 24.1 | 33.8 | 0.00 | 0.00 | 0.00 | 56 | 1013.4 |
| 20260506093815 | 14 | 290 | 27.4 | 33.8 | 0.00 | 0.00 | 0.00 | 57 | 1013.4 |
| 20260506093326 | 14 | 289 | 20.9 | 32.2 | 0.00 | 0.00 | 0.00 | 57 | 1013.5 |
| 20260506092823 | 14 | 276 | 22.5 | 32.2 | 0.00 | 0.00 | 0.00 | 58 | 1013.6 |
| 20260506092315 | 14 | 274 | 20.9 | 27.4 | 0.00 | 0.00 | 0.00 | 59 | 1013.7 |
| 20260506091825 | 14 | 286 | 17.7 | 24.1 | 0.00 | 0.00 | 0.00 | 58 | 1013.8 |
| 20260506091316 | 14 | 298 | 17.7 | 29.0 | 0.00 | 0.00 | 0.00 | 58 | 1013.8 |
| 20260506090830 | 14 | 291 | 19.3 | 29.0 | 0.00 | 0.00 | 0.00 | 58 | 1013.8 |
| 20260506090323 | 14 | 273 | 17.7 | 27.4 | 0.00 | 0.00 | 0.00 | 59 | 1013.9 |
| 20260506085832 | 14 | 285 | 22.5 | 27.4 | 0.00 | 0.00 | 0.00 | 59 | 1013.9 |
| 20260506085324 | 14 | 313 | 20.9 | 29.0 | 0.00 | 0.00 | 0.00 | 59 | 1013.9 |
| 20260506084817 | 14 | 302 | 22.5 | 30.6 | 0.00 | 0.00 | 0.00 | 59 | 1013.9 |
| 20260506084314 | 14 | 310 | 20.9 | 30.6 | 0.00 | 0.00 | 0.00 | 59 | 1013.9 |
| 20260506083847 | 15 | 277 | 22.5 | 32.2 | 0.00 | 0.00 | 0.00 | 59 | 1014.0 |
| 20260506083318 | 15 | 304 | 24.1 | 37.0 | 0.00 | 0.00 | 0.00 | 58 | 1014.1 |
| 20260506082832 | 15 | 296 | 27.4 | 37.0 | 0.00 | 0.00 | 0.00 | 58 | 1014.1 |
| 20260506082324 | 15 | 291 | 24.1 | 33.8 | 0.00 | 0.00 | 0.00 | 58 | 1014.1 |
| 20260506081819 | 15 | 300 | 20.9 | 37.0 | 0.00 | 0.00 | 0.00 | 58 | 1014.1 |
| 20260506081331 | 15 | 294 | 29.0 | 37.0 | 0.00 | 0.00 | 0.00 | 58 | 1014.1 |
| 20260506080823 | 15 | 304 | 25.7 | 33.8 | 0.00 | 0.00 | 0.00 | 58 | 1014.2 |
| 20260506080333 | 15 | 295 | 25.7 | 35.4 | 0.00 | 0.00 | 0.00 | 57 | 1014.2 |